Time,TemperatureF,DewpointF,PressureIn,WindDirection,WindDirectionDegrees,WindSpeedMPH,WindSpeedGustMPH,Humidity,HourlyPrecipIn,Conditions,Clouds,dailyrainin,SoftwareType,DateUTC
2013-03-06 00:25:00,48.0,22.1,30.34,North,0,0.0,0.0,36,0.00,,,0.00,WUHU216HW,2013-03-06 06:25:00,
2013-03-06 00:30:00,48.0,22.1,30.33,North,0,0.0,0.0,36,0.00,,,0.00,WUHU216HW,2013-03-06 06:30:00,
2013-03-06 00:35:00,48.0,22.1,30.33,North,0,0.0,0.0,36,0.00,,,0.00,WUHU216HW,2013-03-06 06:35:00,
2013-03-06 00:40:00,48.0,22.1,30.33,North,0,0.0,0.0,36,0.00,,,0.00,WUHU216HW,2013-03-06 06:40:00,
2013-03-06 00:45:00,48.0,22.1,30.34,North,0,0.0,0.0,36,0.00,,,0.00,WUHU216HW,2013-03-06 06:45:00,
2013-03-06 01:08:00,47.1,22.0,30.34,North,0,0.0,0.0,37,0.00,,,0.00,WUHU216HW,2013-03-06 07:08:00,
2013-03-06 01:13:00,46.9,21.8,30.35,North,0,0.0,0.0,37,0.00,,,0.00,WUHU216HW,2013-03-06 07:13:00,
2013-03-06 01:18:00,46.7,22.3,30.35,North,0,0.0,0.0,38,0.00,,,0.00,WUHU216HW,2013-03-06 07:18:00,
2013-03-06 01:23:00,46.5,22.1,30.34,North,0,0.0,0.0,38,0.00,,,0.00,WUHU216HW,2013-03-06 07:23:00,
2013-03-06 01:28:00,46.5,22.1,30.35,North,0,0.0,0.0,38,0.00,,,0.00,WUHU216HW,2013-03-06 07:28:00,
2013-03-06 01:33:00,46.5,22.1,30.34,North,0,0.0,0.0,38,0.00,,,0.00,WUHU216HW,2013-03-06 07:33:00,
2013-03-06 01:38:00,46.2,22.5,30.34,North,0,0.0,0.0,39,0.00,,,0.00,WUHU216HW,2013-03-06 07:38:00,
2013-03-06 01:43:00,46.0,22.3,30.35,North,0,0.0,0.0,39,0.00,,,0.00,WUHU216HW,2013-03-06 07:43:00,
2013-03-06 01:48:00,45.8,22.2,30.34,North,0,0.0,0.0,39,0.00,,,0.00,WUHU216HW,2013-03-06 07:48:00,
2013-03-06 01:53:00,45.6,22.0,30.35,North,0,0.0,0.0,39,0.00,,,0.00,WUHU216HW,2013-03-06 07:53:00,
2013-03-06 01:58:00,45.5,22.5,30.35,North,0,0.0,0.0,40,0.00,,,0.00,WUHU216HW,2013-03-06 07:58:00,
2013-03-06 02:03:00,45.5,22.5,30.36,North,0,0.0,0.0,40,0.00,,,0.00,WUHU216HW,2013-03-06 08:03:00,
2013-03-06 02:08:00,45.6,22.7,30.35,North,0,0.0,0.0,40,0.00,,,0.00,WUHU216HW,2013-03-06 08:08:00,
2013-03-06 02:13:00,45.6,22.0,30.35,North,0,0.0,2.6,39,0.00,,,0.00,WUHU216HW,2013-03-06 08:13:00,
2013-03-06 02:18:00,46.0,22.3,30.36,North,0,0.0,2.6,39,0.00,,,0.00,WUHU216HW,2013-03-06 08:18:00,
2013-03-06 02:23:00,45.6,22.0,30.34,North,0,0.0,0.0,39,0.00,,,0.00,WUHU216HW,2013-03-06 08:23:00,
2013-03-06 02:28:00,45.6,22.0,30.34,North,0,0.0,0.0,39,0.00,,,0.00,WUHU216HW,2013-03-06 08:28:00,
2013-03-06 02:33:00,45.6,22.0,30.34,North,0,0.0,0.0,39,0.00,,,0.00,WUHU216HW,2013-03-06 08:33:00,
2013-03-06 02:38:00,45.5,21.8,30.34,NNE,23,0.0,0.0,39,0.00,,,0.00,WUHU216HW,2013-03-06 08:38:00,
2013-03-06 02:43:00,45.5,22.5,30.34,NNE,23,0.0,0.0,40,0.00,,,0.00,WUHU216HW,2013-03-06 08:43:00,
2013-03-06 02:48:00,45.5,22.5,30.33,NNE,23,0.0,0.0,40,0.00,,,0.00,WUHU216HW,2013-03-06 08:48:00,
2013-03-06 02:53:00,45.3,22.3,30.33,North,0,0.0,0.0,40,0.00,,,0.00,WUHU216HW,2013-03-06 08:53:00,
2013-03-06 02:58:00,45.3,22.3,30.33,NNE,23,0.0,0.0,40,0.00,,,0.00,WUHU216HW,2013-03-06 08:58:00,
2013-03-06 03:03:00,45.3,22.3,30.33,NNE,23,3.1,3.1,40,0.00,,,0.00,WUHU216HW,2013-03-06 09:03:00,
2013-03-06 03:08:00,45.1,22.7,30.33,NNE,23,0.0,3.1,41,0.00,,,0.00,WUHU216HW,2013-03-06 09:08:00,
2013-03-06 03:13:00,45.1,22.7,30.33,NNE,23,0.0,0.0,41,0.00,,,0.00,WUHU216HW,2013-03-06 09:13:00,
2013-03-06 03:18:00,45.1,22.7,30.33,NNE,23,0.0,0.0,41,0.00,,,0.00,WUHU216HW,2013-03-06 09:18:00,
2013-03-06 03:24:00,44.9,22.6,30.33,North,0,0.0,0.0,41,0.00,,,0.00,WUHU216HW,2013-03-06 09:24:00,
2013-03-06 03:29:00,44.9,23.1,30.33,North,0,0.0,0.0,42,0.00,,,0.00,WUHU216HW,2013-03-06 09:29:00,
2013-03-06 03:34:00,44.7,22.9,30.33,NNE,23,0.0,0.0,42,0.00,,,0.00,WUHU216HW,2013-03-06 09:34:00,
2013-03-06 03:39:00,44.6,22.8,30.33,North,0,0.0,0.0,42,0.00,,,0.00,WUHU216HW,2013-03-06 09:39:00,
2013-03-06 03:44:00,44.6,22.8,30.33,NNE,23,0.0,0.0,42,0.00,,,0.00,WUHU216HW,2013-03-06 09:44:00,
2013-03-06 03:49:00,44.4,22.6,30.33,NNE,23,0.0,0.0,42,0.00,,,0.00,WUHU216HW,2013-03-06 09:49:00,
2013-03-06 03:54:00,44.4,23.1,30.33,NNW,338,0.0,0.0,43,0.00,,,0.00,WUHU216HW,2013-03-06 09:54:00,
2013-03-06 03:59:00,44.4,23.1,30.33,North,0,0.0,0.0,43,0.00,,,0.00,WUHU216HW,2013-03-06 09:59:00,
2013-03-06 04:09:00,44.4,23.1,30.33,North,0,0.0,0.0,43,0.00,,,0.00,WUHU216HW,2013-03-06 10:09:00,
2013-03-06 04:14:00,44.2,23.0,30.33,NNE,23,0.0,0.0,43,0.00,,,0.00,WUHU216HW,2013-03-06 10:14:00,
2013-03-06 04:19:00,44.2,23.0,30.33,North,0,0.0,0.0,43,0.00,,,0.00,WUHU216HW,2013-03-06 10:19:00,
2013-03-06 04:24:00,44.2,23.0,30.33,NE,45,0.0,0.0,43,0.00,,,0.00,WUHU216HW,2013-03-06 10:24:00,
2013-03-06 04:29:00,44.0,22.7,30.33,NE,45,0.0,0.0,43,0.00,,,0.00,WUHU216HW,2013-03-06 10:29:00,
2013-03-06 04:34:00,44.2,24.1,30.33,NNE,23,0.0,0.0,45,0.00,,,0.00,WUHU216HW,2013-03-06 10:34:00,
2013-03-06 04:39:00,46.5,25.6,30.33,NNE,23,0.0,0.0,44,0.00,,,0.00,WUHU216HW,2013-03-06 10:39:00,
2013-03-06 04:44:00,44.9,23.6,30.33,NNE,23,0.0,0.0,43,0.00,,,0.00,WUHU216HW,2013-03-06 10:44:00,
2013-03-06 04:49:00,44.4,23.1,30.33,NNE,23,0.0,0.0,43,0.00,,,0.00,WUHU216HW,2013-03-06 10:49:00,
2013-03-06 04:55:00,44.2,23.5,30.33,NNE,23,0.0,0.0,44,0.00,,,0.00,WUHU216HW,2013-03-06 10:55:00,
2013-03-06 05:00:00,43.8,23.2,30.33,NNE,23,0.0,0.0,44,0.00,,,0.00,WUHU216HW,2013-03-06 11:00:00,
2013-03-06 05:05:00,43.5,22.9,30.33,NNE,23,0.0,0.0,44,0.00,,,0.00,WUHU216HW,2013-03-06 11:05:00,
2013-03-06 05:10:00,43.5,22.9,30.34,NNE,23,0.0,0.0,44,0.00,,,0.00,WUHU216HW,2013-03-06 11:10:00,
2013-03-06 05:15:00,43.3,23.3,30.35,NNE,23,0.0,0.0,45,0.00,,,0.00,WUHU216HW,2013-03-06 11:15:00,
2013-03-06 05:20:00,43.3,23.3,30.34,NNE,23,0.0,0.0,45,0.00,,,0.00,WUHU216HW,2013-03-06 11:20:00,
2013-03-06 05:25:00,43.1,23.1,30.34,NNE,23,0.0,0.0,45,0.00,,,0.00,WUHU216HW,2013-03-06 11:25:00,
2013-03-06 05:30:00,42.9,22.9,30.34,NNE,23,0.0,0.0,45,0.00,,,0.00,WUHU216HW,2013-03-06 11:30:00,
2013-03-06 05:35:00,42.9,23.5,30.35,NNE,23,0.0,0.0,46,0.00,,,0.00,WUHU216HW,2013-03-06 11:35:00,
2013-03-06 05:40:00,42.6,23.7,30.35,NNE,23,0.0,0.0,47,0.00,,,0.00,WUHU216HW,2013-03-06 11:40:00,
2013-03-06 05:45:00,42.6,23.7,30.35,NNE,23,0.0,0.0,47,0.00,,,0.00,WUHU216HW,2013-03-06 11:45:00,
2013-03-06 05:50:00,42.4,23.5,30.36,NNE,23,0.0,0.0,47,0.00,,,0.00,WUHU216HW,2013-03-06 11:50:00,
2013-03-06 05:55:00,41.9,23.0,30.36,NNE,23,0.0,0.0,47,0.00,,,0.00,WUHU216HW,2013-03-06 11:55:00,
2013-03-06 06:00:00,41.9,23.5,30.36,NNE,23,0.0,0.0,48,0.00,,,0.00,WUHU216HW,2013-03-06 12:00:00,
2013-03-06 06:05:00,41.7,23.3,30.36,NNE,23,0.0,0.0,48,0.00,,,0.00,WUHU216HW,2013-03-06 12:05:00,
2013-03-06 06:11:00,41.3,23.0,30.36,NNE,23,0.0,0.0,48,0.00,,,0.00,WUHU216HW,2013-03-06 12:11:00,
2013-03-06 06:16:00,41.3,23.0,30.37,NNE,23,0.0,0.0,48,0.00,,,0.00,WUHU216HW,2013-03-06 12:16:00,
2013-03-06 06:21:00,41.1,22.8,30.37,NNE,23,0.0,0.0,48,0.00,,,0.00,WUHU216HW,2013-03-06 12:21:00,
2013-03-06 06:26:00,41.0,22.6,30.37,NNE,23,0.0,0.0,48,0.00,,,0.00,WUHU216HW,2013-03-06 12:26:00,
2013-03-06 06:31:00,41.0,23.1,30.38,North,0,0.0,0.0,49,0.00,,,0.00,WUHU216HW,2013-03-06 12:31:00,
2013-03-06 06:36:00,41.0,23.1,30.38,NNE,23,0.0,0.0,49,0.00,,,0.00,WUHU216HW,2013-03-06 12:36:00,
2013-03-06 06:41:00,40.8,23.0,30.38,NNE,23,0.0,0.0,49,0.00,,,0.00,WUHU216HW,2013-03-06 12:41:00,
2013-03-06 06:46:00,40.8,23.0,30.38,NNE,23,0.0,0.0,49,0.00,,,0.00,WUHU216HW,2013-03-06 12:46:00,
2013-03-06 06:51:00,40.8,23.5,30.38,NNE,23,0.0,0.0,50,0.00,,,0.00,WUHU216HW,2013-03-06 12:51:00,
2013-03-06 06:56:00,40.8,23.5,30.39,NNE,23,0.0,0.0,50,0.00,,,0.00,WUHU216HW,2013-03-06 12:56:00,
2013-03-06 07:01:00,40.6,23.3,30.38,NNE,23,0.0,0.0,50,0.00,,,0.00,WUHU216HW,2013-03-06 13:01:00,
2013-03-06 07:06:00,40.6,23.3,30.38,NNE,23,0.0,0.0,50,0.00,,,0.00,WUHU216HW,2013-03-06 13:06:00,
2013-03-06 07:11:00,40.2,23.5,30.38,NNE,23,0.0,0.0,51,0.00,,,0.00,WUHU216HW,2013-03-06 13:11:00,
2013-03-06 07:16:00,40.4,23.6,30.38,NNE,23,0.0,0.0,51,0.00,,,0.00,WUHU216HW,2013-03-06 13:16:00,
2013-03-06 07:21:00,40.6,23.3,30.39,NNE,23,0.0,0.0,50,0.00,,,0.00,WUHU216HW,2013-03-06 13:21:00,
2013-03-06 07:27:00,40.6,23.8,30.39,NNE,23,0.0,0.0,51,0.00,,,0.00,WUHU216HW,2013-03-06 13:27:00,
2013-03-06 07:32:00,40.8,23.9,30.39,NNE,23,0.0,0.0,51,0.00,,,0.00,WUHU216HW,2013-03-06 13:32:00,
2013-03-06 07:37:00,40.8,23.9,30.39,NNE,23,0.0,0.0,51,0.00,,,0.00,WUHU216HW,2013-03-06 13:37:00,
2013-03-06 07:42:00,41.0,24.1,30.39,NNE,23,0.0,0.0,51,0.00,,,0.00,WUHU216HW,2013-03-06 13:42:00,
2013-03-06 07:47:00,41.3,24.5,30.39,NNE,23,0.0,0.0,51,0.00,,,0.00,WUHU216HW,2013-03-06 13:47:00,
2013-03-06 07:52:00,41.5,24.6,30.39,NNE,23,0.0,0.0,51,0.00,,,0.00,WUHU216HW,2013-03-06 13:52:00,
2013-03-06 07:57:00,41.9,24.6,30.40,NNE,23,0.0,0.0,50,0.00,,,0.00,WUHU216HW,2013-03-06 13:57:00,
2013-03-06 08:02:00,42.0,24.8,30.40,NE,45,0.0,0.0,50,0.00,,,0.00,WUHU216HW,2013-03-06 14:02:00,
2013-03-06 08:07:00,42.4,24.6,30.40,NE,45,0.0,0.0,49,0.00,,,0.00,WUHU216HW,2013-03-06 14:07:00,
2013-03-06 08:12:00,42.6,24.8,30.41,NNE,23,0.0,0.0,49,0.00,,,0.00,WUHU216HW,2013-03-06 14:12:00,
2013-03-06 08:17:00,42.9,24.6,30.41,NE,45,0.0,0.0,48,0.00,,,0.00,WUHU216HW,2013-03-06 14:17:00,
2013-03-06 08:22:00,42.9,24.6,30.41,North,0,0.0,0.0,48,0.00,,,0.00,WUHU216HW,2013-03-06 14:22:00,
2013-03-06 08:27:00,43.5,24.5,30.41,ENE,68,0.0,0.0,47,0.00,,,0.00,WUHU216HW,2013-03-06 14:27:00,
2013-03-06 08:32:00,43.8,24.3,30.41,NE,45,0.0,0.0,46,0.00,,,0.00,WUHU216HW,2013-03-06 14:32:00,
2013-03-06 08:37:00,44.2,24.1,30.41,NE,45,0.0,5.8,45,0.00,,,0.00,WUHU216HW,2013-03-06 14:37:00,
2013-03-06 08:42:00,44.4,24.2,30.41,NNE,23,0.0,5.8,45,0.00,,,0.00,WUHU216HW,2013-03-06 14:42:00,
2013-03-06 08:47:00,44.4,23.7,30.41,North,0,0.0,0.0,44,0.00,,,0.00,WUHU216HW,2013-03-06 14:47:00,
2013-03-06 08:52:00,44.6,23.9,30.41,East,90,0.0,0.0,44,0.00,,,0.00,WUHU216HW,2013-03-06 14:52:00,
2013-03-06 08:57:00,44.7,23.5,30.41,NNE,23,0.0,0.0,43,0.00,,,0.00,WUHU216HW,2013-03-06 14:57:00,
2013-03-06 09:02:00,44.7,23.5,30.41,ENE,68,0.0,1.3,43,0.00,,,0.00,WUHU216HW,2013-03-06 15:02:00,
2013-03-06 09:07:00,44.9,23.1,30.41,NNE,23,0.0,1.3,42,0.00,,,0.00,WUHU216HW,2013-03-06 15:07:00,
2013-03-06 09:13:00,45.1,23.3,30.41,NE,45,0.0,0.0,42,0.00,,,0.00,WUHU216HW,2013-03-06 15:13:00,
2013-03-06 09:18:00,45.3,23.4,30.41,East,90,3.1,3.1,42,0.00,,,0.00,WUHU216HW,2013-03-06 15:18:00,
2013-03-06 09:23:00,45.6,23.2,30.41,ENE,68,0.0,5.1,41,0.00,,,0.00,WUHU216HW,2013-03-06 15:23:00,
2013-03-06 09:28:00,46.2,23.7,30.41,East,90,0.0,5.1,41,0.00,,,0.00,WUHU216HW,2013-03-06 15:28:00,
2013-03-06 09:33:00,46.5,23.5,30.41,ENE,68,0.2,3.8,40,0.00,,,0.00,WUHU216HW,2013-03-06 15:33:00,
2013-03-06 09:38:00,47.3,23.8,30.41,ENE,68,0.0,3.8,40,0.00,,,0.00,WUHU216HW,2013-03-06 15:38:00,
2013-03-06 09:43:00,47.3,24.1,30.41,East,90,0.0,0.6,40,0.00,,,0.00,WUHU216HW,2013-03-06 15:43:00,
2013-03-06 09:48:00,47.3,23.5,30.40,ESE,113,0.0,0.0,39,0.00,,,0.00,WUHU216HW,2013-03-06 15:48:00,
2013-03-06 09:53:00,47.4,23.8,30.40,ESE,113,0.0,0.0,39,0.00,,,0.00,WUHU216HW,2013-03-06 15:53:00,
2013-03-06 09:58:00,48.0,24.1,30.40,ESE,113,0.0,0.0,39,0.00,,,0.00,WUHU216HW,2013-03-06 15:58:00,
2013-03-06 10:03:00,48.3,23.7,30.40,NNE,23,1.5,1.5,38,0.00,,,0.00,WUHU216HW,2013-03-06 16:03:00,
2013-03-06 10:08:00,48.5,23.9,30.39,ENE,68,0.0,1.5,38,0.00,,,0.00,WUHU216HW,2013-03-06 16:08:00,
2013-03-06 10:13:00,49.1,24.4,30.39,East,90,0.0,1.5,38,0.00,,,0.00,WUHU216HW,2013-03-06 16:13:00,
2013-03-06 10:18:00,49.2,24.5,30.39,ENE,68,0.0,0.0,38,0.00,,,0.00,WUHU216HW,2013-03-06 16:18:00,
2013-03-06 10:23:00,49.2,23.9,30.39,NNE,23,0.0,0.0,37,0.00,,,0.00,WUHU216HW,2013-03-06 16:23:00,
2013-03-06 10:28:00,49.6,24.2,30.39,ESE,113,4.0,4.0,37,0.00,,,0.00,WUHU216HW,2013-03-06 16:28:00,
2013-03-06 10:33:00,50.0,23.8,30.39,ENE,68,0.0,4.0,36,0.00,,,0.00,WUHU216HW,2013-03-06 16:33:00,
2013-03-06 10:38:00,50.3,24.1,30.40,SE,135,0.0,0.0,36,0.00,,,0.00,WUHU216HW,2013-03-06 16:38:00,
2013-03-06 10:43:00,50.5,24.3,30.40,ESE,113,0.0,0.0,36,0.00,,,0.00,WUHU216HW,2013-03-06 16:43:00,
2013-03-06 10:48:00,50.3,22.8,30.39,West,270,0.0,0.0,34,0.00,,,0.00,WUHU216HW,2013-03-06 16:48:00,
2013-03-06 10:53:00,50.5,22.9,30.39,SSW,203,0.0,0.0,34,0.00,,,0.00,WUHU216HW,2013-03-06 16:53:00,
2013-03-06 10:58:00,50.9,23.3,30.39,SSE,158,2.2,2.2,34,0.00,,,0.00,WUHU216HW,2013-03-06 16:58:00,
2013-03-06 11:03:00,51.8,23.4,30.39,East,90,0.0,2.2,33,0.00,,,0.00,WUHU216HW,2013-03-06 17:03:00,
2013-03-06 11:08:00,51.9,22.9,30.39,ENE,68,0.0,0.0,32,0.00,,,0.00,WUHU216HW,2013-03-06 17:08:00,
2013-03-06 11:13:00,52.5,23.3,30.39,SE,135,0.0,0.0,32,0.00,,,0.00,WUHU216HW,2013-03-06 17:13:00,
2013-03-06 11:18:00,52.8,23.0,30.39,SE,135,0.0,0.0,31,0.00,,,0.00,WUHU216HW,2013-03-06 17:18:00,
2013-03-06 11:23:00,53.2,23.3,30.39,NNE,23,0.0,0.0,31,0.00,,,0.00,WUHU216HW,2013-03-06 17:23:00,
2013-03-06 11:29:00,53.2,23.3,30.38,NNE,23,0.0,0.0,31,0.00,,,0.00,WUHU216HW,2013-03-06 17:29:00,
2013-03-06 11:34:00,53.4,23.5,30.38,East,90,7.3,7.3,31,0.00,,,0.00,WUHU216HW,2013-03-06 17:34:00,
2013-03-06 11:39:00,54.1,23.4,30.38,SE,135,0.0,7.3,30,0.00,,,0.00,WUHU216HW,2013-03-06 17:39:00,
2013-03-06 11:44:00,54.5,23.7,30.38,ESE,113,0.0,0.0,30,0.00,,,0.00,WUHU216HW,2013-03-06 17:44:00,
2013-03-06 11:49:00,54.6,22.9,30.37,ESE,113,0.0,0.0,29,0.00,,,0.00,WUHU216HW,2013-03-06 17:49:00,
2013-03-06 11:54:00,55.0,22.2,30.37,SE,135,0.0,0.0,28,0.00,,,0.00,WUHU216HW,2013-03-06 17:54:00,
2013-03-06 11:59:00,54.5,21.8,30.37,SW,225,0.0,0.0,28,0.00,,,0.00,WUHU216HW,2013-03-06 17:59:00,
2013-03-06 12:04:00,54.8,22.1,30.37,ESE,113,0.0,0.0,28,0.00,,,0.00,WUHU216HW,2013-03-06 18:04:00,
2013-03-06 12:09:00,55.5,22.7,30.36,ESE,113,0.0,0.0,28,0.00,,,0.00,WUHU216HW,2013-03-06 18:09:00,
2013-03-06 12:14:00,55.9,22.1,30.37,ESE,113,0.0,3.3,27,0.00,,,0.00,WUHU216HW,2013-03-06 18:14:00,
2013-03-06 12:19:00,56.3,22.4,30.36,SSE,158,0.0,3.3,27,0.00,,,0.00,WUHU216HW,2013-03-06 18:19:00,
2013-03-06 12:24:00,56.4,21.6,30.36,East,90,0.0,0.0,26,0.00,,,0.00,WUHU216HW,2013-03-06 18:24:00,
2013-03-06 12:29:00,56.8,21.9,30.35,East,90,0.0,0.0,26,0.00,,,0.00,WUHU216HW,2013-03-06 18:29:00,
2013-03-06 12:34:00,57.3,22.3,30.34,South,180,0.0,0.0,26,0.00,,,0.00,WUHU216HW,2013-03-06 18:34:00,
2013-03-06 12:39:00,57.7,22.6,30.34,NNE,23,0.0,0.0,26,0.00,,,0.00,WUHU216HW,2013-03-06 18:39:00,
2013-03-06 12:44:00,58.1,23.0,30.33,North,0,0.0,0.0,26,0.00,,,0.00,WUHU216HW,2013-03-06 18:44:00,
2013-03-06 12:50:00,58.6,23.4,30.33,East,90,0.0,0.0,26,0.00,,,0.00,WUHU216HW,2013-03-06 18:50:00,
2013-03-06 12:55:00,58.8,22.6,30.33,East,90,0.0,0.0,25,0.00,,,0.00,WUHU216HW,2013-03-06 18:55:00,
2013-03-06 13:00:00,59.3,23.1,30.33,ENE,68,2.6,2.6,25,0.00,,,0.00,WUHU216HW,2013-03-06 19:00:00,
2013-03-06 13:05:00,59.7,23.4,30.33,SE,135,0.0,5.5,25,0.00,,,0.00,WUHU216HW,2013-03-06 19:05:00,
2013-03-06 13:10:00,60.4,22.7,30.33,NE,45,0.0,5.5,24,0.00,,,0.00,WUHU216HW,2013-03-06 19:10:00,
2013-03-06 13:15:00,60.9,23.5,30.32,ESE,113,0.0,1.3,24,0.00,,,0.00,WUHU216HW,2013-03-06 19:15:00,
2013-03-06 13:20:00,60.6,23.2,30.31,ESE,113,1.1,1.3,24,0.00,,,0.00,WUHU216HW,2013-03-06 19:20:00,
2013-03-06 13:25:00,61.5,23.0,30.31,SE,135,0.0,1.1,23,0.00,,,0.00,WUHU216HW,2013-03-06 19:25:00,
2013-03-06 13:30:00,61.7,23.1,30.30,SE,135,0.0,1.1,23,0.00,,,0.00,WUHU216HW,2013-03-06 19:30:00,
2013-03-06 13:35:00,61.7,23.1,30.30,East,90,0.0,0.0,23,0.00,,,0.00,WUHU216HW,2013-03-06 19:35:00,
2013-03-06 13:40:00,62.2,22.6,30.29,SSE,158,0.0,0.0,22,0.00,,,0.00,WUHU216HW,2013-03-06 19:40:00,
2013-03-06 13:45:00,61.8,21.3,30.29,WSW,248,0.0,0.0,21,0.00,,,0.00,WUHU216HW,2013-03-06 19:45:00,
2013-03-06 13:51:00,61.8,21.3,30.28,SSW,203,0.0,0.0,21,0.00,,,0.00,WUHU216HW,2013-03-06 19:51:00,
2013-03-06 13:56:00,62.4,23.7,30.28,ESE,113,0.0,0.0,23,0.00,,,0.00,WUHU216HW,2013-03-06 19:56:00,
2013-03-06 14:01:00,62.9,22.2,30.28,SE,135,0.0,0.0,21,0.00,,,0.00,WUHU216HW,2013-03-06 20:01:00,
2013-03-06 14:06:00,62.9,22.2,30.28,SSE,158,0.0,0.0,21,0.00,,,0.00,WUHU216HW,2013-03-06 20:06:00,
2013-03-06 14:11:00,63.1,22.4,30.27,SSE,158,0.0,0.0,21,0.00,,,0.00,WUHU216HW,2013-03-06 20:11:00,
2013-03-06 14:16:00,64.0,23.1,30.27,ENE,68,0.0,3.5,21,0.00,,,0.00,WUHU216HW,2013-03-06 20:16:00,
2013-03-06 14:21:00,64.2,23.2,30.27,ESE,113,0.0,3.5,21,0.00,,,0.00,WUHU216HW,2013-03-06 20:21:00,
2013-03-06 14:26:00,64.4,22.3,30.26,South,180,5.1,6.0,20,0.00,,,0.00,WUHU216HW,2013-03-06 20:26:00,
2013-03-06 14:31:00,64.0,22.1,30.25,ESE,113,0.0,6.0,20,0.00,,,0.00,WUHU216HW,2013-03-06 20:31:00,
2013-03-06 14:36:00,64.2,22.3,30.25,NE,45,0.0,5.1,20,0.00,,,0.00,WUHU216HW,2013-03-06 20:36:00,
2013-03-06 14:41:00,64.7,22.7,30.25,ESE,113,0.0,0.0,20,0.00,,,0.00,WUHU216HW,2013-03-06 20:41:00,
2013-03-06 14:46:00,64.9,22.8,30.24,ENE,68,0.0,3.5,20,0.00,,,0.00,WUHU216HW,2013-03-06 20:46:00,
2013-03-06 14:51:00,64.9,22.8,30.24,ESE,113,0.0,3.5,20,0.00,,,0.00,WUHU216HW,2013-03-06 20:51:00,
2013-03-06 14:56:00,64.7,22.7,30.24,ENE,68,0.0,0.0,20,0.00,,,0.00,WUHU216HW,2013-03-06 20:56:00,
2013-03-06 15:01:00,65.1,23.0,30.23,North,0,0.0,0.0,20,0.00,,,0.00,WUHU216HW,2013-03-06 21:01:00,
2013-03-06 15:06:00,65.1,23.0,30.23,NE,45,0.0,0.0,20,0.00,,,0.00,WUHU216HW,2013-03-06 21:06:00,
2013-03-06 15:11:00,64.9,22.8,30.23,ESE,113,0.0,0.0,20,0.00,,,0.00,WUHU216HW,2013-03-06 21:11:00,
2013-03-06 15:16:00,64.9,22.8,30.23,NE,45,0.0,0.0,20,0.00,,,0.00,WUHU216HW,2013-03-06 21:16:00,
2013-03-06 15:22:00,65.1,23.0,30.23,NNE,23,0.0,0.0,20,0.00,,,0.00,WUHU216HW,2013-03-06 21:22:00,
2013-03-06 15:27:00,64.7,22.7,30.23,NE,45,0.0,4.6,20,0.00,,,0.00,WUHU216HW,2013-03-06 21:27:00,
2013-03-06 15:32:00,63.8,22.0,30.23,ENE,68,0.0,4.6,20,0.00,,,0.00,WUHU216HW,2013-03-06 21:32:00,
2013-03-06 15:37:00,62.7,21.1,30.23,SE,135,0.0,0.0,20,0.00,,,0.00,WUHU216HW,2013-03-06 21:37:00,
2013-03-06 15:42:00,62.4,20.8,30.23,ESE,113,0.0,0.0,20,0.00,,,0.00,WUHU216HW,2013-03-06 21:42:00,
2013-03-06 15:47:00,63.1,19.8,30.23,SE,135,0.0,0.0,19,0.00,,,0.00,WUHU216HW,2013-03-06 21:47:00,
2013-03-06 15:52:00,63.6,20.3,30.23,SE,135,0.0,0.0,19,0.00,,,0.00,WUHU216HW,2013-03-06 21:52:00,
2013-03-06 15:57:00,63.6,20.3,30.22,ESE,113,0.0,0.0,19,0.00,,,0.00,WUHU216HW,2013-03-06 21:57:00,
2013-03-06 16:02:00,63.5,20.1,30.21,SE,135,0.0,0.0,19,0.00,,,0.00,WUHU216HW,2013-03-06 22:02:00,
2013-03-06 16:07:00,62.7,19.5,30.21,ENE,68,0.0,0.0,19,0.00,,,0.00,WUHU216HW,2013-03-06 22:07:00,
2013-03-06 16:12:00,62.4,19.3,30.20,SE,135,0.0,0.0,19,0.00,,,0.00,WUHU216HW,2013-03-06 22:12:00,
2013-03-06 16:17:00,62.2,19.1,30.20,SSE,158,0.0,0.0,19,0.00,,,0.00,WUHU216HW,2013-03-06 22:17:00,
2013-03-06 16:22:00,61.8,20.4,30.20,East,90,0.0,1.3,20,0.00,,,0.00,WUHU216HW,2013-03-06 22:22:00,
2013-03-06 16:27:00,61.7,20.3,30.20,ESE,113,0.0,1.3,20,0.00,,,0.00,WUHU216HW,2013-03-06 22:27:00,
2013-03-06 16:32:00,61.5,20.1,30.20,SE,135,0.0,0.0,20,0.00,,,0.00,WUHU216HW,2013-03-06 22:32:00,
2013-03-06 16:37:00,61.5,20.1,30.19,ESE,113,0.0,0.0,20,0.00,,,0.00,WUHU216HW,2013-03-06 22:37:00,
2013-03-06 16:42:00,61.5,20.1,30.19,East,90,0.0,0.0,20,0.00,,,0.00,WUHU216HW,2013-03-06 22:42:00,
2013-03-06 16:47:00,61.5,18.5,30.19,SE,135,0.0,0.0,19,0.00,,,0.00,WUHU216HW,2013-03-06 22:47:00,
2013-03-06 16:53:00,61.5,18.5,30.19,SSE,158,0.0,0.0,19,0.00,,,0.00,WUHU216HW,2013-03-06 22:53:00,
2013-03-06 16:58:00,61.5,18.5,30.20,ESE,113,0.0,0.0,19,0.00,,,0.00,WUHU216HW,2013-03-06 22:58:00,
2013-03-06 17:03:00,61.5,18.5,30.20,SE,135,0.0,0.0,19,0.00,,,0.00,WUHU216HW,2013-03-06 23:03:00,
2013-03-06 17:08:00,61.3,18.4,30.20,SSE,158,0.0,0.0,19,0.00,,,0.00,WUHU216HW,2013-03-06 23:08:00,
2013-03-06 17:13:00,61.3,18.4,30.20,ESE,113,0.0,0.0,19,0.00,,,0.00,WUHU216HW,2013-03-06 23:13:00,
2013-03-06 17:18:00,61.8,18.8,30.20,East,90,0.0,0.0,19,0.00,,,0.00,WUHU216HW,2013-03-06 23:18:00,
2013-03-06 17:23:00,61.5,18.5,30.20,ESE,113,0.0,0.0,19,0.00,,,0.00,WUHU216HW,2013-03-06 23:23:00,
2013-03-06 17:28:00,61.5,18.5,30.20,ESE,113,0.0,0.0,19,0.00,,,0.00,WUHU216HW,2013-03-06 23:28:00,
2013-03-06 17:33:00,61.3,18.4,30.20,ESE,113,0.0,0.0,19,0.00,,,0.00,WUHU216HW,2013-03-06 23:33:00,
2013-03-06 17:38:00,61.1,18.3,30.19,ESE,113,0.0,0.0,19,0.00,,,0.00,WUHU216HW,2013-03-06 23:38:00,
2013-03-06 17:43:00,60.9,19.7,30.20,ESE,113,0.0,0.0,20,0.00,,,0.00,WUHU216HW,2013-03-06 23:43:00,
2013-03-06 17:48:00,60.8,19.5,30.20,East,90,0.0,0.0,20,0.00,,,0.00,WUHU216HW,2013-03-06 23:48:00,
2013-03-06 17:53:00,60.6,19.4,30.19,East,90,0.0,0.0,20,0.00,,,0.00,WUHU216HW,2013-03-06 23:53:00,
2013-03-06 17:58:00,60.4,19.4,30.19,SE,135,0.0,0.0,20,0.00,,,0.00,WUHU216HW,2013-03-06 23:58:00,
2013-03-06 18:03:00,60.4,19.2,30.19,SE,135,0.0,0.0,20,0.00,,,0.00,WUHU216HW,2013-03-07 00:03:00,
2013-03-06 18:08:00,60.0,18.9,30.19,ESE,113,0.0,0.0,20,0.00,,,0.00,WUHU216HW,2013-03-07 00:08:00,
2013-03-06 18:13:00,60.0,18.9,30.18,ESE,113,0.0,0.0,20,0.00,,,0.00,WUHU216HW,2013-03-07 00:13:00,
2013-03-06 18:18:00,59.9,18.7,30.19,ESE,113,0.0,0.0,20,0.00,,,0.00,WUHU216HW,2013-03-07 00:18:00,
2013-03-06 18:23:00,59.7,19.5,30.19,ESE,113,0.0,0.0,21,0.00,,,0.00,WUHU216HW,2013-03-07 00:23:00,
2013-03-06 18:28:00,59.5,19.4,30.19,East,90,0.0,0.0,21,0.00,,,0.00,WUHU216HW,2013-03-07 00:28:00,
2013-03-06 18:33:00,59.5,19.4,30.19,ESE,113,0.0,0.0,21,0.00,,,0.00,WUHU216HW,2013-03-07 00:33:00,
2013-03-06 18:38:00,59.5,19.4,30.18,ESE,113,0.0,0.0,21,0.00,,,0.00,WUHU216HW,2013-03-07 00:38:00,
2013-03-06 18:43:00,59.1,19.0,30.19,ESE,113,0.0,0.0,21,0.00,,,0.00,WUHU216HW,2013-03-07 00:43:00,
2013-03-06 18:49:00,58.8,18.7,30.19,ESE,113,0.0,0.0,21,0.00,,,0.00,WUHU216HW,2013-03-07 00:49:00,
2013-03-06 18:54:00,58.8,18.7,30.19,East,90,0.0,0.0,21,0.00,,,0.00,WUHU216HW,2013-03-07 00:54:00,
2013-03-06 18:59:00,58.8,18.7,30.18,SSE,158,0.0,0.0,21,0.00,,,0.00,WUHU216HW,2013-03-07 00:59:00,
2013-03-06 19:04:00,58.8,18.7,30.18,East,90,0.0,0.0,21,0.00,,,0.00,WUHU216HW,2013-03-07 01:04:00,
2013-03-06 19:09:00,58.6,18.6,30.18,ESE,113,0.0,0.0,21,0.00,,,0.00,WUHU216HW,2013-03-07 01:09:00,
2013-03-06 19:14:00,58.6,19.5,30.19,East,90,0.0,0.0,22,0.00,,,0.00,WUHU216HW,2013-03-07 01:14:00,
2013-03-06 19:19:00,58.4,19.4,30.18,SE,135,0.0,0.0,22,0.00,,,0.00,WUHU216HW,2013-03-07 01:19:00,
2013-03-06 19:24:00,58.1,19.1,30.18,SSE,158,0.0,0.0,22,0.00,,,0.00,WUHU216HW,2013-03-07 01:24:00,
2013-03-06 19:29:00,58.1,19.1,30.19,SSE,158,0.0,0.0,22,0.00,,,0.00,WUHU216HW,2013-03-07 01:29:00,
2013-03-06 19:34:00,57.9,19.0,30.19,SSE,158,0.0,0.0,22,0.00,,,0.00,WUHU216HW,2013-03-07 01:34:00,
2013-03-06 19:39:00,57.9,19.0,30.19,SSE,158,0.0,0.0,22,0.00,,,0.00,WUHU216HW,2013-03-07 01:39:00,
2013-03-06 19:44:00,57.7,18.8,30.18,SSE,158,0.0,0.0,22,0.00,,,0.00,WUHU216HW,2013-03-07 01:44:00,
2013-03-06 19:49:00,57.7,18.8,30.18,SSE,158,0.0,0.0,22,0.00,,,0.00,WUHU216HW,2013-03-07 01:49:00,
2013-03-06 19:54:00,57.3,18.5,30.18,South,180,0.0,0.0,22,0.00,,,0.00,WUHU216HW,2013-03-07 01:54:00,
2013-03-06 19:59:00,57.3,18.5,30.19,SSE,158,0.0,0.0,22,0.00,,,0.00,WUHU216HW,2013-03-07 01:59:00,
2013-03-06 20:04:00,57.2,19.3,30.18,SSE,158,0.0,0.0,23,0.00,,,0.00,WUHU216HW,2013-03-07 02:04:00,
2013-03-06 20:09:00,57.0,20.1,30.19,SSE,158,0.0,0.0,24,0.00,,,0.00,WUHU216HW,2013-03-07 02:09:00,
2013-03-06 20:14:00,57.0,20.1,30.18,SSE,158,0.0,0.0,24,0.00,,,0.00,WUHU216HW,2013-03-07 02:14:00,
2013-03-06 20:19:00,57.0,20.1,30.19,SSE,158,0.0,0.0,24,0.00,,,0.00,WUHU216HW,2013-03-07 02:19:00,
2013-03-06 20:24:00,56.8,20.9,30.18,SSE,158,0.0,0.0,25,0.00,,,0.00,WUHU216HW,2013-03-07 02:24:00,
2013-03-06 20:30:00,56.6,20.8,30.18,SSE,158,0.0,0.0,25,0.00,,,0.00,WUHU216HW,2013-03-07 02:30:00,
2013-03-06 20:35:00,56.4,20.6,30.17,SSE,158,0.0,0.0,25,0.00,,,0.00,WUHU216HW,2013-03-07 02:35:00,
2013-03-06 20:40:00,56.1,20.3,30.17,SSE,158,0.0,0.0,25,0.00,,,0.00,WUHU216HW,2013-03-07 02:40:00,
2013-03-06 20:45:00,55.9,21.1,30.17,SSE,158,0.0,0.0,26,0.00,,,0.00,WUHU216HW,2013-03-07 02:45:00,
2013-03-06 20:50:00,55.9,21.1,30.17,SSE,158,0.0,0.0,26,0.00,,,0.00,WUHU216HW,2013-03-07 02:50:00,
2013-03-06 20:55:00,55.7,21.0,30.17,SE,135,0.0,0.0,26,0.00,,,0.00,WUHU216HW,2013-03-07 02:55:00,
2013-03-06 21:00:00,55.5,20.8,30.17,SE,135,0.0,0.0,26,0.00,,,0.00,WUHU216HW,2013-03-07 03:00:00,
2013-03-06 21:05:00,55.5,20.8,30.17,SE,135,0.0,0.0,26,0.00,,,0.00,WUHU216HW,2013-03-07 03:05:00,
2013-03-06 21:10:00,55.5,20.8,30.17,SE,135,0.0,0.0,26,0.00,,,0.00,WUHU216HW,2013-03-07 03:10:00,
2013-03-06 21:15:00,55.4,21.6,30.17,SE,135,0.0,0.0,27,0.00,,,0.00,WUHU216HW,2013-03-07 03:15:00,
2013-03-06 21:20:00,55.4,21.6,30.17,SE,135,0.0,0.0,27,0.00,,,0.00,WUHU216HW,2013-03-07 03:20:00,
2013-03-06 21:25:00,55.2,21.4,30.17,SE,135,0.0,0.0,27,0.00,,,0.00,WUHU216HW,2013-03-07 03:25:00,
2013-03-06 21:30:00,55.0,21.3,30.16,SSE,158,0.0,0.0,27,0.00,,,0.00,WUHU216HW,2013-03-07 03:30:00,
2013-03-06 21:35:00,55.0,21.3,30.17,SSE,158,0.0,0.0,27,0.00,,,0.00,WUHU216HW,2013-03-07 03:35:00,
2013-03-06 21:40:00,55.7,22.8,30.18,South,180,0.0,0.0,28,0.00,,,0.00,WUHU216HW,2013-03-07 03:40:00,
2013-03-06 21:45:00,55.9,23.9,30.17,South,180,0.0,0.0,29,0.00,,,0.00,WUHU216HW,2013-03-07 03:45:00,
2013-03-06 21:50:00,57.0,24.9,30.16,South,180,0.0,0.0,29,0.00,,,0.00,WUHU216HW,2013-03-07 03:50:00,
2013-03-06 21:55:00,56.1,23.1,30.17,South,180,0.0,0.0,28,0.00,,,0.00,WUHU216HW,2013-03-07 03:55:00,
2013-03-06 22:00:00,55.0,22.2,30.17,South,180,0.0,0.0,28,0.00,,,0.00,WUHU216HW,2013-03-07 04:00:00,
2013-03-06 22:05:00,54.6,21.9,30.17,South,180,0.0,0.0,28,0.00,,,0.00,WUHU216HW,2013-03-07 04:05:00,
2013-03-06 22:10:00,54.5,21.8,30.17,South,180,0.0,0.0,28,0.00,,,0.00,WUHU216HW,2013-03-07 04:10:00,
2013-03-06 22:15:00,54.3,21.6,30.17,South,180,0.0,0.0,28,0.00,,,0.00,WUHU216HW,2013-03-07 04:15:00,
2013-03-06 22:21:00,54.1,22.4,30.16,South,180,0.0,0.0,29,0.00,,,0.00,WUHU216HW,2013-03-07 04:21:00,
2013-03-06 22:26:00,53.9,22.3,30.16,South,180,0.0,0.0,29,0.00,,,0.00,WUHU216HW,2013-03-07 04:26:00,
2013-03-06 22:31:00,53.7,22.1,30.16,South,180,0.0,0.0,29,0.00,,,0.00,WUHU216HW,2013-03-07 04:31:00,
2013-03-06 22:36:00,53.4,22.8,30.16,South,180,0.0,0.0,30,0.00,,,0.00,WUHU216HW,2013-03-07 04:36:00,
2013-03-06 22:41:00,53.2,22.6,30.16,South,180,0.0,0.0,30,0.00,,,0.00,WUHU216HW,2013-03-07 04:41:00,
2013-03-06 22:46:00,52.8,23.0,30.16,South,180,0.0,0.0,31,0.00,,,0.00,WUHU216HW,2013-03-07 04:46:00,
2013-03-06 22:51:00,52.8,22.3,30.16,South,180,0.0,0.0,30,0.00,,,0.00,WUHU216HW,2013-03-07 04:51:00,
2013-03-06 22:56:00,52.7,22.8,30.16,South,180,0.0,0.0,31,0.00,,,0.00,WUHU216HW,2013-03-07 04:56:00,
2013-03-06 23:00:00,52.7,22.8,30.16,South,180,0.0,0.0,31,0.00,,,0.00,WUHU216HW,2013-03-07 05:00:00,
2013-03-06 23:01:00,52.5,22.7,30.16,South,180,0.0,0.0,31,0.00,,,0.00,WUHU216HW,2013-03-07 05:01:00,
2013-03-06 23:06:00,52.3,22.5,30.17,South,180,0.0,0.0,31,0.00,,,0.00,WUHU216HW,2013-03-07 05:06:00,
2013-03-06 23:11:00,52.1,22.3,30.16,South,180,0.0,0.0,31,0.00,,,0.00,WUHU216HW,2013-03-07 05:11:00,
2013-03-06 23:16:00,51.9,22.2,30.16,South,180,0.0,0.0,31,0.00,,,0.00,WUHU216HW,2013-03-07 05:16:00,
2013-03-06 23:21:00,51.9,22.9,30.16,South,180,0.0,0.0,32,0.00,,,0.00,WUHU216HW,2013-03-07 05:21:00,
2013-03-06 23:26:00,51.9,22.9,30.16,South,180,0.0,0.0,32,0.00,,,0.00,WUHU216HW,2013-03-07 05:26:00,
2013-03-06 23:31:00,51.8,22.7,30.16,South,180,0.0,0.0,32,0.00,,,0.00,WUHU216HW,2013-03-07 05:31:00,
2013-03-06 23:36:00,51.6,22.5,30.17,South,180,0.0,0.0,32,0.00,,,0.00,WUHU216HW,2013-03-07 05:36:00,
2013-03-06 23:41:00,51.4,23.1,30.16,South,180,0.0,0.0,33,0.00,,,0.00,WUHU216HW,2013-03-07 05:41:00,
2013-03-06 23:46:00,51.0,22.7,30.16,South,180,0.0,0.0,33,0.00,,,0.00,WUHU216HW,2013-03-07 05:46:00,
2013-03-06 23:51:00,51.2,22.9,30.16,South,180,0.0,0.0,33,0.00,,,0.00,WUHU216HW,2013-03-07 05:51:00,
2013-03-06 23:56:00,51.2,22.9,30.16,South,180,0.0,0.0,33,0.00,,,0.00,WUHU216HW,2013-03-07 05:56:00,